Temp
-17 -17 -18 -18 -18 -18 -18 -18 -18 -17 -17 -17 -17 -17 -17 -16 -16 -16 -16 -16 -16 -16 -16 -15 -14 -14 -14 -14 -13 -13 -12 -12 -12 -11 -11 -11 -11 -11 -11 -11 -12 -11 -10 -10 -10 -9 -9 -9 -9 -9 -9 -9 -8 -8 -8 -8 -8 -8 -8 -8 -8 -8 -7
-17 -18 -18 -18 -18 -18 -18 -18 -18 -17 -17 -17 -17 -17 -17 -17 -17 -16 -16 -16 -16 -16 -16 -15 -15 -15 -15 -14 -14 -13 -13 -12 -12 -12 -12 -11 -11 -11 -11 -11 -11 -11 -10 -10 -10 -10 -10 -10 -9 -9 -9 -9 -8 -8 -8 -8 -8 -8 -8 -8 -8 -8 -7
-17 -18 -18 -19 -18 -18 -18 -18 -18 -18 -18 -18 -18 -17 -17 -17 -17 -16 -16 -16 -17 -16 -16 -16 -15 -15 -15 -15 -14 -14 -13 -13 -12 -12 -12 -12 -12 -11 -11 -11 -11 -11 -11 -10 -10 -10 -10 -10 -10 -10 -9 -9 -9 -9 -9 -9 -9 -9 -9 -9 -8 -8 -8
-17 -18 -19 -19 -18 -18 -18 -18 -18 -18 -18 -18 -18 -18 -17 -17 -17 -17 -17 -17 -17 -17 -16 -16 -16 -15 -15 -15 -15 -14 -14 -14 -13 -13 -13 -13 -12 -12 -12 -11 -11 -11 -11 -11 -11 -10 -10 -10 -10 -10 -10 -10 -9 -9 -9 -9 -9 -9 -9 -9 -9 -9 -8
-17 -18 -18 -18 -19 -19 -19 -18 -18 -18 -18 -18 -18 -18 -17 -17 -17 -17 -17 -17 -17 -17 -17 -17 -16 -16 -16 -16 -15 -15 -14 -14 -14 -14 -13 -13 -13 -12 -12 -12 -12 -11 -11 -11 -11 -11 -11 -10 -10 -10 -10 -10 -10 -10 -10 -9 -9 -9 -9 -9 -9 -9 -9
-17 -17 -17 -18 -18 -19 -19 -18 -18 -18 -18 -18 -18 -18 -18 -18 -17 -17 -17 -17 -17 -17 -17 -17 -17 -16 -16 -16 -15 -15 -15 -14 -14 -14 -14 -13 -13 -13 -13 -13 -12 -12 -12 -12 -11 -11 -11 -11 -11 -11 -10 -10 -10 -10 -10 -10 -9 -9 -9 -9 -9 -9 -9
-17 -17 -17 -18 -18 -18 -18 -18 -18 -18 -18 -18 -18 -18 -18 -18 -18 -17 -17 -17 -17 -17 -17 -17 -17 -17 -16 -16 -16 -15 -15 -15 -14 -14 -14 -14 -14 -13 -13 -13 -13 -13 -12 -12 -11 -11 -11 -11 -11 -11 -11 -11 -11 -10 -10 -10 -10 -9 -9 -9 -9 -9 -9
-17 -17 -17 -18 -18 -18 -18 -18 -18 -18 -18 -18 -18 -18 -18 -18 -18 -18 -18 -17 -17 -17 -17 -17 -17 -17 -16 -16 -16 -15 -15 -15 -15 -15 -14 -14 -14 -14 -14 -14 -14 -13 -13 -12 -12 -11 -11 -11 -11 -11 -11 -11 -11 -11 -10 -10 -10 -10 -9 -9 -9 -9 -10
-17 -17 -17 -17 -18 -18 -18 -18 -18 -18 -18 -18 -18 -18 -18 -18 -18 -18 -18 -18 -17 -17 -17 -17 -17 -17 -16 -16 -16 -16 -15 -15 -15 -15 -15 -15 -14 -14 -14 -14 -14 -14 -14 -13 -12 -12 -12 -12 -11 -11 -11 -11 -11 -11 -10 -10 -10 -10 -10 -10 -10 -10 -10
-17 -17 -17 -17 -17 -18 -18 -18 -18 -18 -18 -18 -18 -18 -18 -18 -18 -18 -18 -18 -18 -17 -17 -17 -17 -17 -16 -16 -16 -16 -16 -15 -15 -15 -15 -15 -15 -15 -15 -15 -15 -14 -14 -14 -13 -13 -12 -12 -11 -11 -11 -11 -11 -11 -11 -11 -11 -11 -10 -10 -11 -11 -11
-17 -17 -17 -17 -17 -17 -18 -18 -18 -18 -18 -18 -18 -18 -18 -18 -18 -18 -18 -18 -18 -17 -17 -17 -17 -17 -17 -16 -16 -16 -16 -16 -15 -15 -15 -15 -15 -15 -15 -15 -15 -15 -14 -14 -14 -13 -13 -12 -12 -11 -11 -11 -12 -12 -12 -11 -11 -11 -11 -11 -11 -11 -11
-18 -17 -17 -17 -17 -17 -17 -18 -18 -18 -18 -18 -18 -18 -18 -18 -18 -18 -18 -18 -18 -17 -17 -17 -17 -17 -17 -17 -16 -16 -16 -16 -16 -15 -15 -15 -15 -15 -15 -15 -15 -15 -15 -14 -14 -14 -13 -13 -12 -12 -12 -12 -12 -12 -12 -12 -12 -12 -11 -11 -11 -11 -11
-18 -18 -18 -18 -17 -17 -17 -18 -18 -18 -18 -18 -18 -18 -18 -18 -18 -18 -18 -18 -17 -17 -17 -17 -17 -17 -17 -17 -16 -16 -16 -16 -16 -16 -16 -15 -15 -15 -15 -15 -15 -15 -15 -15 -15 -14 -14 -13 -13 -13 -13 -12 -12 -12 -13 -12 -12 -12 -12 -12 -12 -12 -12
-19 -19 -18 -18 -18 -18 -18 -18 -18 -18 -18 -18 -18 -18 -18 -18 -18 -18 -18 -17 -17 -17 -17 -17 -17 -17 -17 -17 -16 -16 -16 -16 -16 -16 -16 -16 -16 -16 -15 -15 -15 -15 -15 -15 -15 -15 -14 -14 -14 -14 -13 -13 -13 -13 -13 -13 -13 -13 -12 -12 -12 -12 -12
-19 -19 -19 -19 -19 -18 -18 -18 -18 -18 -18 -18 -18 -18 -18 -18 -18 -18 -18 -17 -17 -17 -17 -17 -17 -17 -17 -17 -16 -16 -16 -16 -16 -16 -16 -16 -16 -16 -16 -16 -15 -15 -16 -15 -15 -15 -15 -15 -15 -14 -14 -14 -14 -14 -14 -13 -13 -13 -13 -13 -13 -13 -13
-19 -19 -19 -19 -19 -18 -18 -18 -18 -18 -18 -18 -18 -18 -18 -18 -18 -18 -17 -17 -17 -17 -17 -17 -17 -17 -17 -16 -16 -16 -16 -17 -17 -17 -17 -16 -16 -16 -16 -16 -16 -16 -16 -16 -16 -15 -15 -15 -15 -15 -15 -15 -14 -14 -14 -14 -14 -13 -13 -13 -13 -13 -13
-19 -19 -19 -19 -19 -18 -18 -18 -18 -18 -18 -18 -18 -18 -18 -18 -17 -17 -17 -17 -17 -17 -17 -16 -17 -17 -17 -16 -16 -17 -17 -17 -17 -17 -17 -17 -17 -17 -16 -16 -16 -16 -16 -16 -16 -16 -16 -16 -16 -15 -15 -15 -15 -15 -15 -15 -14 -14 -14 -13 -13 -13 -13
-19 -19 -19 -19 -18 -18 -18 -18 -18 -18 -18 -18 -18 -18 -18 -18 -17 -17 -17 -17 -17 -17 -17 -17 -17 -17 -17 -17 -17 -17 -17 -17 -17 -17 -17 -17 -17 -17 -17 -16 -16 -17 -16 -16 -16 -16 -16 -16 -16 -16 -15 -15 -15 -15 -15 -15 -15 -15 -14 -14 -13 -13 -13
-19 -19 -18 -18 -18 -18 -18 -18 -18 -18 -18 -18 -18 -18 -18 -18 -18 -17 -17 -17 -17 -17 -17 -17 -17 -17 -17 -17 -17 -17 -17 -17 -17 -17 -17 -17 -17 -17 -16 -16 -16 -16 -16 -16 -16 -16 -16 -16 -16 -16 -16 -16 -15 -15 -15 -15 -15 -15 -15 -14 -14 -14 -13
-19 -19 -19 -18 -18 -18 -18 -18 -18 -18 -18 -18 -18 -18 -18 -17 -17 -17 -17 -17 -17 -17 -16 -16 -16 -16 -17 -17 -17 -17 -17 -17 -17 -17 -17 -17 -17 -16 -16 -16 -16 -16 -17 -17 -16 -16 -16 -16 -16 -16 -16 -16 -15 -15 -15 -15 -15 -15 -15 -15 -14 -14 -14
-19 -18 -19 -19 -19 -18 -18 -18 -18 -18 -18 -18 -17 -17 -17 -17 -17 -17 -17 -17 -17 -17 -16 -16 -16 -16 -17 -17 -17 -17 -17 -17 -17 -17 -17 -17 -16 -16 -16 -17 -16 -16 -17 -17 -17 -17 -16 -16 -16 -16 -16 -16 -16 -15 -16 -15 -15 -15 -15 -15 -15 -15 -14
-19 -19 -18 -18 -18 -18 -18 -18 -18 -18 -18 -17 -17 -17 -17 -17 -17 -17 -17 -17 -17 -16 -16 -16 -16 -17 -17 -17 -17 -18 -18 -18 -18 -18 -18 -17 -17 -17 -18 -17 -17 -17 -17 -17 -17 -17 -16 -16 -16 -16 -16 -16 -16 -16 -16 -16 -16 -16 -16 -15 -15 -15 -15
-18 -18 -18 -18 -18 -18 -18 -18 -17 -17 -17 -17 -17 -17 -17 -17 -17 -17 -17 -17 -16 -16 -16 -16 -17 -17 -17 -17 -18 -18 -18 -18 -18 -18 -18 -18 -18 -18 -18 -18 -17 -17 -17 -17 -17 -17 -16 -16 -16 -16 -16 -16 -16 -16 -16 -16 -16 -16 -16 -16 -15 -15 -15
-18 -18 -17 -17 -17 -17 -18 -17 -17 -17 -17 -17 -17 -16 -16 -16 -16 -16 -16 -16 -16 -16 -16 -17 -17 -17 -17 -17 -18 -18 -18 -18 -18 -18 -18 -18 -18 -18 -18 -18 -18 -18 -18 -18 -18 -18 -17 -17 -17 -17 -16 -16 -16 -17 -17 -17 -17 -17 -16 -16 -16 -16 -16
-18 -18 -18 -17 -17 -17 -17 -17 -17 -17 -17 -17 -16 -16 -16 -16 -16 -16 -16 -16 -16 -16 -17 -17 -17 -17 -17 -17 -17 -17 -17 -17 -18 -18 -18 -18 -18 -18 -18 -18 -18 -18 -18 -18 -19 -19 -18 -18 -18 -17 -17 -17 -17 -18 -18 -18 -17 -17 -17 -16 -16 -16 -16
-18 -18 -18 -18 -18 -17 -17 -17 -17 -17 -17 -16 -16 -16 -16 -16 -16 -16 -16 -16 -16 -16 -17 -17 -17 -17 -17 -17 -17 -17 -17 -17 -18 -18 -18 -18 -18 -18 -18 -18 -18 -18 -18 -18 -19 -19 -19 -19 -19 -19 -18 -18 -18 -18 -18 -18 -17 -17 -17 -17 -17 -17 -17
-18 -18 -18 -18 -18 -18 -17 -17 -16 -16 -16 -16 -16 -16 -16 -16 -16 -16 -16 -16 -16 -17 -17 -17 -17 -17 -18 -18 -18 -18 -18 -18 -18 -18 -18 -18 -18 -18 -18 -18 -18 -18 -18 -18 -19 -19 -19 -19 -19 -19 -19 -19 -18 -18 -18 -18 -17 -17 -17 -17 -17 -17 -17
-18 -18 -18 -18 -18 -18 -17 -17 -16 -16 -16 -16 -16 -16 -16 -16 -16 -16 -16 -16 -17 -17 -17 -17 -17 -17 -18 -18 -18 -18 -18 -18 -18 -18 -18 -18 -19 -19 -19 -18 -18 -18 -18 -18 -19 -19 -19 -19 -19 -19 -19 -19 -18 -18 -18 -17 -17 -17 -17 -18 -18 -18 -18
-18 -18 -18 -18 -18 -18 -18 -17 -16 -16 -16 -16 -16 -16 -16 -16 -16 -16 -16 -16 -16 -16 -16 -17 -17 -18 -18 -18 -18 -18 -18 -18 -18 -18 -19 -19 -19 -19 -19 -19 -19 -18 -18 -19 -19 -19 -19 -19 -19 -19 -19 -19 -18 -18 -18 -18 -18 -18 -18 -18 -18 -18 -18
-18 -18 -18 -19 -19 -19 -18 -18 -17 -16 -16 -16 -16 -16 -16 -16 -16 -16 -16 -16 -16 -16 -16 -17 -17 -18 -18 -18 -18 -18 -19 -19 -19 -19 -19 -19 -19 -19 -19 -19 -19 -19 -19 -19 -19 -19 -19 -19 -19 -19 -19 -18 -18 -18 -18 -18 -18 -18 -18 -18 -18 -18 -18
-18 -18 -18 -18 -19 -18 -18 -18 -17 -17 -17 -16 -16 -16 -16 -16 -16 -16 -16 -16 -16 -16 -16 -17 -17 -18 -18 -18 -18 -19 -19 -19 -19 -20 -20 -20 -20 -20 -19 -19 -19 -19 -19 -19 -19 -19 -19 -19 -19 -19 -19 -18 -18 -18 -19 -19 -19 -19 -19 -19 -19 -19 -19
-18 -18 -18 -18 -18 -18 -18 -18 -17 -17 -17 -16 -16 -16 -16 -16 -16 -16 -16 -16 -16 -16 -17 -17 -17 -18 -18 -19 -19 -19 -19 -20 -20 -20 -20 -20 -20 -20 -20 -19 -19 -19 -19 -19 -20 -19 -19 -19 -19 -19 -19 -19 -19 -19 -19 -19 -19 -19 -19 -19 -19 -19 -19
-17 -18 -18 -18 -18 -18 -18 -18 -17 -17 -17 -16 -16 -16 -16 -16 -16 -16 -16 -16 -16 -16 -17 -17 -17 -18 -18 -18 -19 -19 -19 -20 -20 -20 -20 -20 -20 -20 -20 -20 -19 -19 -19 -19 -19 -19 -19 -19 -19 -19 -19 -20 -20 -20 -20 -20 -20 -19 -19 -19 -19 -19 -19
-17 -18 -18 -18 -18 -18 -18 -18 -18 -17 -17 -17 -17 -17 -17 -17 -16 -16 -16 -16 -16 -16 -17 -17 -17 -17 -18 -18 -18 -19 -19 -20 -20 -20 -20 -20 -20 -20 -20 -20 -20 -20 -19 -19 -20 -20 -20 -20 -20 -20 -20 -20 -20 -20 -20 -20 -20 -20 -20 -20 -19 -19 -19
-18 -18 -18 -18 -18 -18 -18 -18 -18 -18 -17 -17 -17 -17 -17 -17 -17 -17 -16 -16 -16 -16 -17 -17 -17 -17 -18 -18 -18 -19 -19 -19 -20 -20 -20 -20 -20 -20 -20 -20 -20 -20 -20 -20 -20 -20 -20 -20 -20 -20 -20 -20 -20 -20 -20 -20 -20 -20 -20 -20 -20 -20 -20
-18 -18 -18 -18 -18 -18 -18 -18 -18 -18 -17 -17 -17 -17 -17 -16 -17 -17 -17 -16 -17 -17 -17 -17 -17 -17 -17 -18 -18 -19 -19 -19 -19 -20 -20 -20 -20 -20 -20 -20 -20 -20 -20 -20 -20 -20 -20 -20 -20 -20 -20 -20 -20 -20 -20 -20 -20 -20 -20 -20 -20 -20 -20
Height
2831 2831 2833 2836 2838 2840 2842 2844 2846 2848 2849 2850 2852 2853 2855 2857 2859 2861 2863 2864 2866 2867 2868 2870 2871 2874 2878 2881 2883 2885 2887 2890 2893 2896 2899 2902 2905 2907 2910 2912 2914 2916 2919 2922 2925 2930 2933 2937 2941 2943 2948 2953 2956 2961 2966 2969 2972 2975 2977 2980 2982 2985 2987
2826 2827 2828 2830 2833 2835 2837 2839 2841 2843 2844 2845 2847 2848 2850 2852 2854 2856 2858 2860 2861 2863 2864 2865 2866 2869 2872 2876 2877 2879 2881 2883 2887 2890 2892 2895 2898 2901 2904 2907 2909 2911 2913 2915 2918 2922 2926 2929 2933 2936 2941 2945 2949 2953 2957 2960 2963 2967 2970 2973 2976 2979 2981
2821 2822 2823 2825 2828 2830 2832 2834 2836 2838 2839 2841 2842 2844 2845 2847 2849 2851 2853 2855 2856 2858 2860 2861 2862 2864 2866 2870 2872 2874 2876 2878 2880 2883 2886 2889 2892 2895 2898 2901 2904 2906 2908 2909 2912 2916 2919 2923 2926 2929 2934 2938 2942 2944 2947 2951 2956 2959 2963 2966 2969 2972 2975
2816 2817 2818 2820 2823 2825 2827 2828 2831 2833 2834 2836 2837 2839 2841 2842 2844 2846 2848 2850 2852 2853 2855 2857 2858 2859 2861 2863 2866 2869 2871 2873 2875 2877 2880 2883 2886 2889 2892 2895 2898 2901 2903 2904 2906 2910 2914 2917 2920 2923 2926 2930 2934 2937 2939 2943 2947 2951 2955 2958 2961 2965 2969
2811 2812 2813 2815 2817 2820 2822 2824 2826 2828 2829 2831 2833 2834 2836 2838 2840 2842 2843 2845 2847 2849 2850 2852 2854 2855 2856 2857 2860 2864 2866 2868 2870 2872 2874 2877 2880 2883 2887 2889 2892 2895 2898 2899 2901 2904 2908 2911 2914 2917 2920 2923 2926 2930 2933 2935 2939 2943 2947 2950 2954 2958 2962
2806 2807 2808 2811 2813 2815 2817 2820 2822 2824 2826 2828 2829 2831 2833 2834 2836 2837 2839 2841 2843 2844 2846 2847 2848 2850 2851 2852 2854 2858 2861 2863 2865 2867 2869 2872 2875 2878 2881 2883 2886 2889 2892 2893 2895 2898 2901 2904 2908 2911 2914 2917 2920 2923 2927 2928 2931 2936 2940 2944 2947 2951 2954
2802 2803 2805 2807 2809 2811 2814 2816 2818 2821 2823 2825 2826 2828 2829 2830 2832 2833 2834 2836 2838 2840 2841 2842 2844 2845 2847 2848 2850 2853 2856 2858 2861 2863 2865 2868 2871 2874 2876 2878 2880 2883 2885 2888 2890 2893 2896 2899 2902 2905 2908 2912 2914 2917 2920 2923 2925 2929 2933 2937 2941 2944 2948
2798 2799 2801 2802 2804 2807 2809 2812 2814 2817 2819 2821 2823 2824 2826 2827 2828 2829 2830 2832 2834 2835 2837 2838 2840 2841 2843 2845 2847 2849 2851 2853 2856 2859 2861 2864 2867 2869 2871 2873 2875 2878 2880 2882 2885 2888 2891 2893 2896 2899 2902 2905 2907 2909 2914 2918 2920 2923 2927 2930 2934 2938 2941
2794 2795 2797 2798 2800 2802 2805 2807 2810 2813 2815 2817 2819 2821 2822 2824 2825 2825 2826 2828 2830 2832 2833 2835 2836 2838 2839 2841 2843 2845 2847 2849 2852 2854 2857 2860 2862 2864 2866 2868 2870 2873 2875 2877 2880 2882 2885 2888 2890 2893 2896 2898 2901 2905 2909 2912 2915 2918 2921 2924 2927 2931 2934
2791 2791 2793 2794 2796 2798 2800 2802 2805 2808 2811 2813 2814 2816 2818 2820 2821 2822 2823 2824 2826 2827 2829 2831 2832 2834 2836 2838 2840 2842 2844 2846 2848 2850 2853 2855 2858 2859 2862 2864 2865 2868 2870 2873 2875 2877 2880 2882 2885 2888 2891 2894 2897 2900 2903 2905 2909 2912 2915 2918 2920 2923 2927
2788 2788 2789 2791 2792 2794 2796 2798 2801 2803 2805 2807 2809 2812 2814 2816 2817 2819 2819 2820 2822 2823 2825 2827 2828 2830 2832 2834 2836 2838 2841 2843 2844 2847 2849 2851 2853 2855 2857 2859 2861 2864 2867 2869 2871 2874 2876 2878 2881 2884 2887 2889 2892 2895 2897 2900 2903 2906 2908 2911 2914 2918 2921
2786 2786 2787 2788 2789 2790 2792 2794 2796 2798 2800 2802 2805 2807 2810 2812 2814 2815 2816 2817 2818 2820 2821 2823 2825 2826 2828 2830 2832 2834 2836 2838 2840 2842 2844 2846 2848 2851 2853 2855 2858 2860 2863 2865 2867 2869 2871 2875 2878 2880 2882 2884 2887 2890 2892 2894 2896 2899 2902 2905 2909 2912 2915
2785 2785 2785 2786 2787 2788 2789 2791 2792 2793 2795 2797 2800 2804 2806 2809 2810 2812 2813 2814 2815 2817 2818 2819 2821 2822 2824 2826 2828 2830 2831 2833 2835 2837 2840 2842 2844 2846 2849 2851 2853 2856 2858 2861 2863 2865 2868 2871 2874 2876 2878 2881 2882 2884 2887 2889 2891 2894 2896 2899 2902 2906 2909
2786 2786 2786 2786 2787 2788 2789 2790 2791 2792 2794 2795 2798 2802 2804 2806 2808 2809 2810 2812 2813 2814 2815 2816 2817 2819 2821 2822 2824 2826 2827 2829 2831 2833 2835 2837 2839 2842 2845 2847 2849 2852 2854 2856 2858 2860 2864 2867 2869 2871 2874 2876 2877 2879 2882 2884 2886 2889 2891 2893 2896 2899 2902
2787 2787 2787 2787 2788 2789 2790 2791 2791 2793 2794 2796 2798 2800 2802 2803 2805 2806 2807 2808 2810 2811 2812 2813 2814 2816 2817 2819 2821 2823 2824 2826 2828 2829 2831 2833 2835 2838 2840 2843 2845 2848 2850 2852 2854 2857 2860 2862 2863 2866 2868 2870 2872 2875 2877 2879 2881 2882 2884 2887 2889 2892 2895
2788 2788 2788 2788 2789 2790 2790 2791 2792 2792 2794 2796 2797 2799 2800 2801 2802 2803 2804 2805 2807 2808 2809 2811 2812 2813 2814 2816 2818 2820 2821 2823 2824 2826 2827 2829 2831 2834 2836 2839 2841 2844 2846 2848 2850 2852 2855 2856 2858 2860 2863 2865 2867 2869 2872 2874 2875 2876 2879 2881 2883 2885 2888
2788 2788 2789 2789 2789 2789 2790 2791 2791 2792 2793 2794 2795 2796 2797 2798 2800 2800 2801 2802 2804 2805 2806 2807 2809 2810 2812 2813 2814 2816 2818 2819 2820 2821 2823 2825 2827 2829 2831 2834 2837 2839 2841 2843 2845 2847 2849 2851 2853 2855 2857 2860 2862 2864 2866 2868 2870 2872 2874 2876 2878 2880 2883
2788 2788 2788 2788 2788 2789 2789 2790 2790 2791 2792 2793 2793 2794 2795 2796 2797 2797 2798 2799 2800 2801 2802 2804 2805 2806 2807 2809 2811 2813 2814 2816 2816 2817 2819 2821 2823 2824 2826 2829 2833 2835 2836 2839 2840 2842 2844 2846 2848 2850 2852 2854 2857 2859 2862 2864 2866 2868 2870 2871 2873 2875 2877
2788 2788 2787 2787 2788 2788 2788 2788 2789 2790 2790 2791 2792 2792 2793 2793 2794 2794 2795 2796 2797 2798 2799 2800 2801 2802 2803 2805 2807 2808 2810 2811 2812 2813 2815 2817 2818 2820 2822 2826 2829 2831 2833 2834 2836 2838 2840 2842 2844 2846 2847 2849 2851 2854 2857 2859 2861 2863 2865 2867 2869 2870 2872
2788 2788 2788 2787 2787 2787 2787 2787 2788 2788 2789 2789 2790 2790 2790 2791 2791 2792 2792 2793 2793 2793 2794 2795 2796 2798 2799 2801 2802 2804 2806 2807 2809 2809 2811 2813 2814 2816 2819 2823 2825 2827 2828 2830 2831 2833 2835 2837 2838 2840 2842 2844 2846 2849 2851 2853 2855 2858 2860 2862 2863 2865 2867
2789 2788 2788 2787 2786 2786 2786 2786 2786 2787 2787 2787 2787 2787 2788 2788 2789 2789 2789 2789 2789 2789 2789 2791 2792 2793 2795 2797 2798 2799 2801 2803 2804 2806 2807 2809 2810 2813 2816 2818 2820 2822 2823 2824 2826 2827 2830 2832 2833 2835 2837 2839 2841 2844 2846 2848 2851 2853 2855 2857 2859 2861 2863
2788 2787 2786 2785 2785 2784 2784 2784 2784 2784 2784 2784 2784 2785 2785 2786 2786 2786 2786 2785 2785 2785 2785 2786 2787 2789 2791 2792 2794 2795 2797 2798 2800 2801 2802 2804 2806 2809 2811 2813 2814 2817 2818 2819 2821 2822 2824 2827 2829 2830 2832 2835 2837 2840 2842 2844 2846 2849 2851 2853 2855 2856 2858
2787 2785 2784 2783 2782 2781 2780 2780 2780 2780 2780 2781 2781 2782 2783 2783 2783 2783 2782 2781 2781 2781 2781 2782 2783 2784 2786 2787 2789 2790 2792 2794 2796 2797 2798 2799 2802 2804 2806 2807 2809 2811 2812 2814 2816 2817 2819 2821 2824 2826 2828 2831 2833 2836 2838 2840 2842 2844 2846 2849 2850 2852 2854
2784 2782 2780 2779 2778 2777 2776 2776 2776 2776 2777 2778 2778 2779 2780 2780 2780 2779 2779 2778 2777 2777 2778 2778 2779 2780 2781 2782 2784 2786 2787 2789 2791 2792 2794 2795 2797 2799 2800 2801 2803 2805 2806 2808 2810 2811 2813 2816 2819 2821 2824 2826 2829 2831 2833 2835 2837 2840 2842 2844 2846 2848 2849
2781 2779 2777 2775 2775 2774 2773 2772 2772 2773 2774 2775 2776 2777 2777 2778 2777 2776 2775 2774 2774 2774 2774 2774 2775 2776 2777 2778 2779 2781 2782 2784 2785 2787 2790 2791 2792 2793 2795 2797 2798 2799 2801 2803 2805 2807 2808 2811 2814 2817 2819 2822 2824 2827 2829 2831 2833 2835 2837 2839 2841 2844 2845
2779 2777 2775 2773 2772 2771 2770 2770 2770 2771 2772 2773 2774 2775 2775 2775 2774 2774 2773 2772 2772 2771 2771 2772 2772 2773 2773 2774 2775 2776 2778 2779 2781 2783 2785 2786 2787 2789 2791 2792 2794 2795 2797 2798 2800 2802 2804 2807 2810 2813 2815 2818 2820 2823 2825 2827 2829 2831 2834 2836 2838 2840 2842
2778 2776 2774 2772 2770 2768 2767 2767 2768 2769 2770 2771 2772 2773 2773 2773 2773 2772 2772 2771 2770 2770 2770 2770 2770 2770 2771 2771 2772 2773 2774 2776 2777 2778 2779 2781 2783 2785 2787 2788 2790 2792 2793 2794 2796 2798 2801 2804 2807 2809 2812 2814 2817 2819 2821 2823 2826 2828 2831 2833 2835 2837 2838
2777 2776 2773 2771 2769 2767 2765 2765 2766 2767 2769 2770 2771 2771 2772 2772 2771 2771 2770 2770 2769 2769 2768 2768 2768 2768 2769 2769 2770 2771 2772 2773 2774 2775 2777 2779 2780 2782 2783 2785 2786 2788 2789 2791 2793 2795 2798 2801 2804 2806 2809 2811 2814 2816 2818 2821 2823 2826 2828 2830 2832 2834 2836
2776 2774 2772 2770 2768 2766 2765 2765 2765 2766 2768 2769 2770 2770 2771 2771 2770 2770 2770 2769 2768 2767 2767 2766 2766 2766 2767 2767 2768 2769 2770 2771 2772 2773 2775 2776 2778 2780 2781 2783 2784 2785 2787 2789 2791 2793 2796 2798 2801 2804 2806 2808 2811 2813 2816 2818 2821 2823 2825 2827 2829 2831 2832
2776 2774 2772 2770 2768 2766 2765 2765 2765 2766 2768 2769 2770 2770 2770 2770 2770 2770 2769 2769 2768 2767 2766 2765 2765 2765 2765 2766 2766 2767 2768 2769 2771 2772 2774 2775 2777 2778 2779 2781 2782 2784 2786 2788 2790 2792 2794 2797 2799 2802 2804 2806 2809 2811 2814 2816 2818 2821 2823 2824 2826 2828 2829
2777 2774 2773 2771 2769 2767 2766 2766 2766 2767 2768 2769 2770 2770 2770 2770 2770 2770 2769 2769 2768 2767 2766 2765 2765 2765 2765 2765 2765 2766 2768 2769 2770 2772 2773 2775 2776 2777 2778 2779 2780 2782 2784 2786 2788 2790 2792 2795 2797 2799 2802 2805 2807 2809 2812 2814 2816 2818 2820 2822 2823 2825 2827
2777 2775 2774 2772 2770 2768 2768 2767 2768 2768 2769 2769 2770 2770 2770 2770 2770 2770 2770 2769 2768 2767 2766 2766 2765 2765 2765 2765 2765 2766 2767 2769 2770 2771 2773 2774 2775 2776 2777 2778 2779 2781 2783 2785 2787 2789 2791 2793 2795 2798 2800 2803 2805 2808 2810 2812 2814 2816 2818 2819 2821 2823 2825
2778 2776 2775 2773 2771 2770 2769 2769 2769 2769 2769 2770 2770 2770 2771 2771 2771 2771 2770 2770 2769 2768 2767 2766 2766 2765 2765 2765 2765 2766 2767 2768 2770 2771 2772 2773 2774 2775 2776 2778 2779 2780 2782 2784 2787 2789 2791 2793 2795 2797 2800 2802 2804 2806 2808 2810 2812 2814 2816 2818 2820 2821 2823
2779 2777 2775 2774 2773 2772 2771 2770 2770 2770 2770 2770 2771 2771 2771 2772 2772 2772 2771 2770 2769 2768 2767 2767 2767 2766 2766 2766 2766 2767 2768 2769 2770 2771 2772 2773 2774 2775 2776 2778 2779 2781 2782 2784 2786 2789 2791 2793 2796 2798 2800 2802 2804 2805 2807 2809 2811 2813 2815 2816 2818 2819 2820
2780 2778 2776 2775 2774 2773 2772 2771 2771 2771 2771 2771 2771 2771 2772 2772 2773 2773 2772 2771 2771 2770 2769 2768 2768 2767 2767 2767 2768 2768 2769 2770 2771 2772 2773 2774 2775 2776 2777 2779 2780 2782 2783 2785 2787 2789 2791 2794 2796 2798 2799 2801 2803 2805 2806 2808 2810 2812 2813 2815 2816 2817 2818
2780 2779 2777 2776 2775 2774 2773 2773 2772 2772 2772 2772 2772 2772 2773 2773 2773 2773 2773 2772 2772 2771 2770 2769 2769 2769 2769 2769 2769 2770 2770 2771 2772 2773 2774 2775 2776 2777 2779 2780 2782 2783 2785 2786 2788 2790 2792 2794 2795 2797 2799 2800 2802 2804 2806 2807 2809 2811 2812 2813 2814 2815 2816
Wind_Speed
33 34 36 36 35 34 34 34 34 33 33 34 34 36 38 39 40 39 36 35 36 35 37 46 55 58 54 47 45 49 54 56 55 54 52 50 49 50 49 49 50 49 49 50 50 51 54 57 60 62 59 53 52 53 52 51 51 51 51 51 51 50 49
32 33 35 36 36 35 34 34 34 33 32 33 34 35 37 39 40 41 39 38 38 37 36 40 48 54 54 50 45 44 48 53 54 54 53 51 50 49 49 48 48 47 46 47 47 48 51 54 56 59 59 56 54 54 53 51 52 51 51 52 52 51 50
31 32 35 37 37 35 34 34 33 32 31 31 32 34 37 39 40 41 40 39 39 39 38 38 43 49 50 49 47 43 43 47 50 50 50 50 50 49 48 48 47 45 44 44 44 44 47 50 54 56 56 57 57 56 54 52 51 51 51 52 52 52 50
31 32 35 38 38 37 36 35 34 33 32 30 30 33 36 38 40 41 41 40 39 39 39 38 40 44 47 46 46 45 42 42 44 45 45 46 47 48 48 48 47 45 43 43 42 42 42 45 48 51 53 55 56 56 54 52 51 52 52 52 53 52 51
31 33 36 38 39 39 38 36 35 34 34 32 30 30 33 36 38 40 41 41 39 38 38 38 38 39 42 43 43 44 44 43 41 41 42 42 44 45 47 47 47 46 44 44 43 42 41 42 43 45 48 50 53 55 53 51 51 53 53 53 53 52 51
31 33 35 37 40 41 40 38 36 35 35 33 30 29 30 32 35 37 39 41 41 39 38 38 38 37 38 41 42 42 44 45 43 41 40 41 41 42 43 43 45 46 45 45 44 43 42 42 42 42 43 45 48 51 51 49 50 52 53 53 53 53 53
30 31 33 36 39 41 42 40 37 37 36 34 32 30 30 31 32 34 36 39 41 41 40 39 39 36 36 38 41 41 41 42 44 44 43 41 41 40 40 39 40 42 44 44 45 44 44 43 43 42 43 42 43 46 48 47 48 51 52 53 53 54 53
28 29 31 34 37 40 43 42 39 38 38 37 34 32 31 31 30 31 33 36 39 40 40 39 38 37 36 37 39 40 40 39 40 42 43 43 42 41 40 38 38 39 40 42 44 45 44 44 44 44 44 44 44 45 47 47 48 50 52 52 53 53 52
26 27 29 31 34 38 40 41 39 38 39 39 37 35 33 30 28 28 30 33 36 38 38 37 35 36 36 36 37 38 38 38 38 39 40 41 42 42 41 40 39 39 39 40 41 43 44 44 45 44 44 44 44 44 45 46 47 49 50 52 52 52 50
22 24 26 27 30 34 37 38 36 35 36 38 38 37 35 31 28 28 28 30 33 36 37 35 34 33 34 34 36 37 37 37 37 37 37 37 38 39 40 40 40 40 41 41 41 42 43 44 45 44 43 42 42 42 43 44 45 46 48 50 51 52 51
16 19 21 22 25 28 31 34 35 35 36 36 37 36 35 34 31 28 27 28 30 31 33 33 33 32 31 33 35 35 35 36 37 36 36 37 37 37 38 39 40 40 40 41 42 42 43 44 44 44 43 42 41 41 41 42 43 44 46 48 49 50 51
12 14 16 18 19 22 25 28 31 34 36 35 35 35 35 33 30 27 26 27 28 27 28 29 30 30 30 31 33 34 34 35 36 36 37 37 37 37 37 38 39 39 39 40 41 42 44 44 44 44 44 43 42 41 41 41 42 43 44 45 46 48 49
4 5 7 9 11 13 14 16 18 22 25 26 27 29 29 27 25 24 24 25 25 25 25 26 27 28 29 30 31 32 34 35 35 36 36 37 37 37 37 38 38 38 38 39 40 41 42 42 42 43 43 43 43 42 41 41 42 43 43 43 44 45 47
6 5 4 4 4 5 5 6 7 10 13 16 18 21 21 21 21 21 22 22 23 23 24 25 26 27 28 29 30 32 33 34 34 34 35 35 36 36 36 37 37 37 37 38 39 40 40 39 40 41 41 42 44 44 43 42 42 41 41 41 41 42 43
6 6 5 5 5 5 4 5 6 8 10 12 15 17 19 20 21 21 22 23 23 23 24 24 25 26 26 27 28 30 31 32 33 33 34 34 34 34 35 35 35 35 36 37 38 38 38 38 39 39 40 41 42 43 44 42 41 40 40 40 40 40 42
2 2 1 1 0 2 3 5 6 8 10 12 14 17 19 21 22 22 23 24 23 23 23 24 25 26 26 27 27 28 29 30 32 33 34 35 34 34 33 33 33 33 34 35 36 37 37 37 38 38 39 39 40 41 42 42 41 42 42 42 42 42 43
3 3 4 5 6 7 8 9 9 10 12 14 16 18 20 21 23 24 25 25 25 25 25 25 26 26 27 27 27 28 29 30 32 33 34 35 35 35 34 34 33 33 34 34 35 36 36 37 38 38 39 39 40 41 41 41 41 41 42 43 44 44 44
3 5 7 8 9 10 10 11 11 11 12 13 15 17 18 19 21 22 24 25 26 27 27 28 28 27 28 28 28 28 29 30 32 33 34 34 35 35 35 34 32 33 34 34 34 35 36 36 37 38 39 39 40 40 41 41 41 40 40 41 43 44 45
2 4 5 7 8 9 9 9 10 11 12 12 13 14 14 15 17 19 20 22 24 26 27 28 28 28 28 28 28 28 29 30 31 33 33 34 34 36 35 33 31 32 33 33 34 34 35 35 36 37 38 40 40 40 40 41 41 40 39 39 40 42 43
3 2 4 5 7 9 10 11 12 13 15 15 15 15 15 15 16 18 19 21 23 25 26 27 27 28 28 28 28 28 28 29 31 32 33 33 34 35 33 32 31 32 32 33 34 35 35 36 37 37 38 39 41 41 41 42 42 41 39 39 39 40 42
8 7 7 9 11 13 14 14 13 13 15 17 17 16 16 16 16 18 21 24 25 26 26 26 26 26 26 26 27 28 28 28 29 30 31 33 34 33 32 32 33 33 33 34 35 36 37 37 38 38 39 40 41 41 40 41 41 41 39 38 38 39 40
11 12 12 13 14 15 15 16 15 15 16 18 18 18 18 18 18 20 22 23 24 24 23 23 24 25 25 25 26 26 26 26 26 27 29 31 32 31 32 33 34 34 35 36 36 37 37 36 37 38 39 39 39 38 38 39 39 40 40 39 38 38 39
14 15 16 16 16 16 17 17 17 18 18 19 19 19 19 17 17 19 20 20 20 21 21 22 24 24 25 24 24 25 25 26 27 27 29 30 31 31 32 34 35 35 35 35 36 37 37 36 36 37 38 38 37 37 37 37 38 39 40 39 38 38 39
20 20 19 17 15 15 16 17 17 16 17 17 17 17 16 15 16 18 18 17 17 18 19 21 23 25 26 27 27 27 28 30 31 32 32 32 32 33 34 34 34 34 33 33 34 36 36 36 35 36 36 37 36 36 36 36 36 37 38 38 38 38 37
23 22 19 15 13 12 14 15 15 14 14 14 13 12 12 14 15 16 16 15 13 13 13 14 17 20 24 27 29 31 32 33 34 34 34 34 35 36 35 35 35 35 34 34 34 35 36 35 34 34 35 35 35 33 33 34 35 36 37 37 37 36 36
23 20 16 14 14 14 14 13 13 12 12 12 11 10 10 13 14 14 13 12 11 10 10 10 10 13 17 20 24 27 29 30 31 32 33 35 36 35 34 35 35 33 32 32 33 33 33 33 32 31 32 33 32 32 32 33 34 35 35 35 35 34 35
20 15 13 13 13 13 13 12 10 10 11 10 8 8 10 12 13 12 11 11 10 9 8 7 7 9 11 14 17 20 22 23 25 27 29 30 30 30 30 29 28 28 28 28 29 30 30 30 31 31 31 31 32 32 33 33 33 33 33 33 33 32 32
18 13 13 13 12 10 8 7 7 8 8 7 6 7 9 10 10 10 9 8 7 6 6 5 5 6 7 9 12 14 16 18 20 22 23 24 24 24 24 23 23 24 25 25 25 27 28 29 30 30 30 31 31 31 31 31 31 32 32 31 30 29 29
21 17 16 16 15 11 7 4 5 6 5 4 5 7 8 7 8 8 7 6 4 3 3 4 4 5 6 6 8 9 11 13 16 18 19 20 20 20 19 19 20 21 21 22 23 25 26 27 28 29 29 30 30 29 29 29 30 30 29 28 27 28 28
21 18 17 17 15 11 7 2 3 4 4 4 4 5 5 5 6 6 5 5 5 5 4 3 3 5 6 6 7 7 8 9 11 13 14 16 16 17 17 17 17 17 18 20 22 23 24 25 26 27 27 27 26 26 26 27 27 27 27 27 27 27 27
19 17 15 15 13 11 8 4 2 3 3 3 3 3 3 4 5 4 5 6 6 6 5 4 2 4 5 6 7 8 8 8 9 10 11 11 13 15 15 16 16 17 18 20 22 24 25 25 25 25 25 24 24 24 25 26 26 26 26 25 25 25 26
18 15 14 14 12 11 9 7 5 4 3 2 2 3 4 3 2 3 6 8 9 7 5 5 3 1 5 7 9 11 11 11 11 11 11 11 12 13 14 15 17 17 18 19 21 23 24 25 25 24 23 23 23 24 24 25 24 24 23 23 23 24 24
16 14 13 12 11 10 9 8 6 4 3 1 2 3 3 1 1 4 7 10 11 9 6 6 5 2 4 7 10 12 13 14 13 12 11 12 12 12 13 15 17 18 18 19 20 21 22 22 22 22 23 23 23 23 23 22 22 21 21 21 21 21 21
15 13 12 10 9 8 8 7 6 4 3 2 2 3 4 3 2 4 6 9 10 9 7 6 6 5 4 6 9 12 13 13 13 12 11 10 10 11 13 14 16 17 19 19 19 20 20 20 20 21 21 21 21 20 20 20 19 19 19 19 19 19 19
15 13 12 10 7 6 6 5 4 4 3 3 4 5 5 4 3 3 4 7 7 7 5 3 4 4 4 5 7 10 11 11 11 11 10 10 10 11 11 13 14 15 16 17 18 18 19 19 19 19 19 19 18 17 17 17 17 18 18 18 18 18 17
15 14 13 10 7 5 4 4 3 2 2 2 2 2 2 2 2 1 2 5 7 6 3 1 1 2 3 4 6 8 9 10 10 10 10 10 11 11 12 13 13 14 15 16 16 17 18 18 18 18 18 18 18 17 17 17 17 18 18 17 17 17 16
Wind_Direction
260 254 247 240 236 235 234 235 237 240 242 242 241 239 236 234 233 234 236 237 238 241 239 235 236 239 238 237 237 232 229 229 230 231 233 235 237 238 238 239 241 241 239 238 237 235 236 236 236 238 237 230 226 227 228 227 228 230 232 234 235 236 236
259 252 245 240 236 234 235 236 236 238 241 241 240 240 238 236 236 237 238 240 242 244 244 240 236 238 239 239 238 234 229 228 229 230 231 233 235 237 238 238 238 237 237 238 237 235 234 234 234 236 236 232 225 222 223 224 225 227 230 232 235 236 237
257 249 243 239 235 232 234 234 232 234 237 239 241 240 239 238 238 239 240 241 243 244 246 245 239 238 239 239 238 235 229 225 226 228 230 231 233 235 238 239 238 236 235 237 237 234 233 233 233 233 233 231 226 221 219 220 222 225 228 231 233 235 237
255 247 241 237 233 231 232 231 230 231 233 236 241 241 239 239 240 240 240 240 242 244 245 246 242 239 238 238 238 237 232 226 223 223 226 228 230 232 234 237 238 237 235 236 236 234 232 231 232 231 230 229 227 223 219 217 219 222 225 229 232 234 236
253 247 241 236 232 230 231 231 231 232 232 234 239 240 239 240 241 241 242 241 240 241 242 242 241 239 239 238 237 236 235 231 225 221 220 222 224 227 229 232 234 235 234 235 234 233 231 230 229 229 228 227 227 226 221 217 218 221 225 227 231 233 234
254 250 246 239 234 231 231 231 231 233 235 236 238 240 240 241 242 242 242 241 239 239 239 239 237 238 238 238 237 235 234 234 232 227 222 219 219 221 224 227 230 231 232 233 234 232 231 231 230 229 228 226 226 226 224 219 218 221 225 228 230 233 234
260 256 250 243 238 234 233 233 231 232 235 237 238 240 243 246 246 244 242 240 239 238 238 237 235 235 236 236 236 235 234 233 233 232 229 224 220 219 220 222 225 227 228 230 232 233 232 231 231 232 231 229 227 226 226 224 221 222 225 228 231 233 234
262 257 252 247 242 238 237 237 235 232 235 238 238 240 245 250 249 246 244 241 239 238 239 239 237 235 235 233 233 233 233 233 232 233 232 229 226 223 221 221 221 223 225 227 229 231 232 232 232 232 232 232 231 229 228 228 226 225 226 228 230 232 233
258 254 251 249 247 243 241 242 240 237 236 238 239 242 245 247 248 249 247 243 240 238 239 241 240 238 238 236 233 231 231 231 231 232 232 231 230 228 226 224 223 222 222 223 225 228 231 233 233 233 232 232 233 233 232 232 231 230 229 229 230 230 231
258 256 253 251 249 246 244 245 245 242 240 240 240 241 241 243 249 254 251 245 241 238 238 240 240 239 239 238 237 235 232 232 231 232 232 233 232 231 229 228 227 226 225 223 223 225 228 231 233 234 235 235 234 235 235 236 235 234 233 233 232 231 231
258 256 254 252 250 247 245 245 246 245 243 241 239 239 240 243 250 253 250 246 243 238 237 238 239 239 238 237 238 238 235 233 232 232 233 233 234 234 233 232 231 230 230 229 228 227 228 230 232 235 237 238 237 236 237 237 237 237 236 235 234 233 233
265 260 255 253 249 246 246 245 245 246 246 244 240 238 240 243 246 246 245 245 243 240 238 238 238 238 237 235 235 235 234 232 231 230 231 232 233 234 234 235 234 234 234 233 233 233 232 232 233 235 237 238 239 239 239 238 238 238 238 237 236 234 233
288 266 254 249 243 240 240 239 239 240 240 238 234 232 235 237 237 238 239 241 240 240 241 240 239 238 236 234 233 231 231 231 230 229 229 229 230 230 231 233 234 235 236 236 236 237 237 237 237 237 238 238 240 240 240 240 240 239 239 238 237 235 233
76 86 107 131 151 164 168 182 202 210 210 211 212 216 224 230 232 235 238 239 238 237 239 240 241 240 238 236 234 231 230 231 232 232 231 230 230 230 230 231 231 233 234 236 237 238 239 240 239 238 238 237 237 238 239 240 240 240 240 239 237 235 233
71 74 87 99 107 117 133 163 187 198 201 202 206 213 222 229 234 237 239 241 240 236 236 238 240 241 239 237 235 232 231 231 233 235 236 235 234 233 233 233 232 233 234 236 237 238 238 240 240 240 239 237 237 236 237 237 238 237 237 237 235 233 231
67 71 86 40 272 228 238 235 220 215 216 218 220 224 229 232 235 239 242 245 244 241 240 240 241 242 241 239 237 234 233 233 234 235 237 237 237 237 236 235 235 236 237 238 239 239 239 240 241 240 239 238 238 237 236 236 237 236 236 236 235 232 229
223 222 222 240 248 242 241 244 241 236 234 234 233 234 237 238 240 242 245 247 248 248 247 247 246 245 244 243 239 236 234 234 235 235 235 236 237 237 237 236 236 238 239 239 240 240 240 241 241 241 240 239 238 236 235 236 237 238 238 238 237 236 232
248 243 238 238 243 247 246 245 246 247 245 243 242 242 243 244 245 246 247 248 250 250 250 250 249 248 247 245 243 240 238 237 237 238 237 237 238 238 238 237 237 239 241 241 242 242 241 242 242 242 243 242 240 238 236 235 236 239 241 242 241 239 235
264 247 249 249 248 249 247 241 237 237 236 236 237 239 241 245 251 255 256 256 255 253 251 249 248 247 246 245 244 242 241 240 240 240 240 239 239 240 241 240 238 239 241 243 243 243 242 242 243 242 243 244 243 241 238 236 234 236 240 243 243 241 237
316 251 244 257 254 247 246 248 245 240 235 232 232 232 233 239 251 261 268 270 266 259 254 250 247 246 245 245 245 244 242 241 241 241 240 239 239 240 241 241 239 237 239 242 244 243 242 241 241 240 241 242 243 242 240 238 235 234 238 243 245 244 240
322 296 274 265 258 250 250 255 258 253 245 238 235 236 237 243 253 265 272 274 271 265 258 252 250 248 245 244 246 246 246 245 244 244 243 241 240 241 241 241 239 239 242 244 245 245 243 241 240 239 238 240 241 242 243 241 237 235 237 243 247 247 245
321 310 299 287 276 267 263 262 261 258 252 245 240 242 246 252 262 271 275 273 267 264 259 254 251 249 247 244 243 243 245 247 247 249 250 248 247 247 247 246 244 243 245 246 246 246 245 242 241 239 238 238 239 241 243 243 239 236 237 241 246 248 248
327 318 309 300 290 281 274 268 262 257 254 251 250 252 255 260 270 279 281 276 268 263 261 257 253 251 249 247 242 238 240 243 244 245 247 248 249 249 248 247 247 246 244 243 244 245 245 242 240 239 238 237 237 238 240 241 239 236 236 241 246 249 248
330 324 318 309 298 287 279 274 269 262 257 255 255 256 260 268 279 285 285 281 274 268 263 258 254 251 248 247 244 240 239 239 239 239 239 242 245 246 246 247 249 248 246 242 241 242 243 242 239 237 236 235 235 234 235 236 236 235 237 242 246 247 244
332 327 322 315 306 294 283 276 271 266 260 258 255 257 266 277 286 290 290 287 282 275 269 262 255 250 247 245 244 243 242 241 241 240 239 241 244 246 246 247 248 248 245 241 238 238 241 240 237 233 232 231 231 232 232 233 234 236 240 244 245 243 240
335 328 320 315 312 304 291 279 271 262 256 255 254 260 273 283 288 291 289 284 278 273 271 268 259 251 246 244 243 243 242 241 241 240 239 239 241 242 242 242 242 242 241 238 235 235 236 234 231 228 226 226 227 228 229 230 233 238 241 242 241 239 238
341 331 322 322 321 311 297 282 268 257 253 254 257 261 271 280 287 288 280 271 265 259 256 259 259 250 243 242 242 241 238 235 234 234 234 234 233 232 232 234 235 234 234 233 232 231 230 228 225 222 220 221 223 225 226 230 234 238 239 238 237 237 238
350 348 346 349 351 341 318 287 260 249 248 252 255 256 265 281 289 285 278 273 265 249 237 237 235 224 220 228 235 236 232 228 226 225 225 224 222 222 224 226 227 227 227 227 225 224 222 221 219 218 217 218 221 223 227 231 234 235 235 234 235 237 238
354 358 1 3 4 3 354 304 245 233 230 234 246 255 269 284 284 278 286 299 300 280 262 240 217 205 200 204 215 222 224 224 222 219 215 213 214 217 220 222 223 224 225 224 222 219 217 216 215 214 215 217 219 222 225 229 230 231 232 233 234 235 236
354 359 4 6 8 13 15 346 225 203 192 204 236 267 281 272 264 279 308 328 333 330 318 283 220 203 199 194 193 199 209 214 213 209 207 208 210 212 215 216 216 216 218 220 219 215 213 212 212 213 215 216 218 221 223 225 227 228 228 229 231 233 235
358 2 5 9 16 28 35 48 128 149 166 193 230 277 271 245 253 300 341 352 354 353 340 319 267 198 188 179 172 174 179 184 187 189 196 204 209 209 207 203 200 201 205 210 211 208 205 205 207 210 212 213 215 217 219 221 222 224 225 226 228 230 232
3 4 5 12 26 45 58 74 102 125 155 193 236 253 239 236 283 355 13 6 360 358 349 339 340 167 164 160 161 163 164 166 172 180 191 201 205 205 200 193 189 190 194 199 202 202 200 200 202 204 206 208 210 212 214 216 218 219 221 222 224 225 227
9 6 6 12 28 53 73 88 100 112 136 188 247 232 206 179 25 33 29 11 360 356 353 352 357 29 127 148 157 160 159 161 167 178 193 202 203 198 194 190 186 185 188 193 196 199 201 201 202 202 202 204 206 208 210 212 214 215 216 217 219 222 224
13 12 12 15 24 48 75 92 101 111 123 138 174 174 155 123 87 53 29 11 360 353 350 355 5 23 72 129 149 157 158 162 170 179 189 196 193 186 183 185 185 185 187 189 192 194 197 198 198 200 201 203 205 206 206 207 208 209 212 214 217 221 224
13 17 19 22 28 43 65 83 95 112 126 140 164 169 156 128 108 73 29 18 12 2 350 353 12 28 60 107 132 144 151 156 163 171 176 178 179 178 178 181 183 184 184 185 186 188 190 191 192 194 195 196 197 198 200 201 204 207 211 215 218 221 224
9 15 19 22 29 38 51 70 92 128 144 147 170 175 152 124 133 130 36 29 29 29 32 37 16 40 77 107 121 131 140 145 149 157 164 166 169 172 172 174 177 178 179 181 182 183 185 185 185 186 187 188 189 191 195 200 204 208 212 215 218 223 227